{"data":{"norad_id":66479,"epoch":"2026-09-20T08:42:14.096160Z","epoch_age_seconds":101172,"freshness":"FRESH","line1":"1 66479U 25262Z   26263.36266315  .00010780  00000+0  40055-3 0  9992","line2":"2 66479  42.9988 276.3611 0001013 207.5508 152.5290 15.27589502 48686","mean_motion":15.27589502,"eccentricity":0.0001013,"inclination_deg":42.9988,"raan_deg":276.3611,"arg_perigee_deg":207.5508,"mean_anomaly_deg":152.529,"bstar":0.00040055,"rev_number":4868,"period_min":94.266162350204,"perigee_km":482.3256085115,"apogee_km":483.71567905013,"semimajor_km":6861.1576437808,"source":"CELESTRAK","updated_at":"2026-09-21T09:00:35.917180Z"}}